THY8412 ESSA-LTFM

Flight info

Callsign THY8412
Flight time N/A
Altitude 35000
Route BABAP T316 NEPVA/N0486F360 DCT ANFEV/N0480F370 DCT NUBLI N133 KOTEK DCT KENIN DCT RUTUV DCT RONBU DCT ATBOG DCT BUVAK DCT RIXEN RIXEN1A/35R
Aircraft B77W/H-SDE1E2E3FGHIJ2J3J4J5M1RWXY/LB1D1

Departure

Time N/A
Airport Stockholm-Arlanda Airport (ESSA)

Arrival

Time 2026-05-04 14:37
Airport İstanbul Airport (LTFM)
Time Latitude Longitude Altitude Speed Heading
2026-05-04 14:23 41.06975 28.26627 6846 ft 300 kts 132°
2026-05-04 14:23 41.05465 28.28563 6491 ft 300 kts 133°
2026-05-04 14:23 41.03945 28.30510 6139 ft 300 kts 132°
2026-05-04 14:24 41.02441 28.32434 5901 ft 295 kts 133°
2026-05-04 14:24 41.00955 28.34335 5479 ft 297 kts 132°
2026-05-04 14:24 40.99475 28.36226 5320 ft 289 kts 132°
2026-05-04 14:24 40.98220 28.38277 5070 ft 277 kts 111°
2026-05-04 14:25 40.97738 28.40647 5002 ft 256 kts 90°
2026-05-04 14:25 40.97588 28.45185 5008 ft 239 kts 84°
2026-05-04 14:25 40.97586 28.47399 4998 ft 237 kts 83°
2026-05-04 14:26 40.97590 28.49572 5002 ft 238 kts 83°
2026-05-04 14:26 40.97595 28.51804 5003 ft 238 kts 83°
2026-05-04 14:26 40.97598 28.54063 4992 ft 238 kts 83°
2026-05-04 14:26 40.97601 28.56287 4991 ft 238 kts 83°
2026-05-04 14:27 40.97603 28.58500 4996 ft 238 kts 83°
2026-05-04 14:27 40.97605 28.60675 4993 ft 238 kts 83°
2026-05-04 14:27 40.97606 28.62879 4993 ft 238 kts 83°
2026-05-04 14:27 40.97607 28.65074 4993 ft 238 kts 83°
2026-05-04 14:28 40.97606 28.67225 4988 ft 228 kts 83°
2026-05-04 14:28 40.97604 28.69269 4987 ft 215 kts 82°
2026-05-04 14:28 40.97847 28.71087 4980 ft 192 kts 54°
2026-05-04 14:28 40.98651 28.72368 4982 ft 174 kts 35°
2026-05-04 14:29 41.00766 28.73246 4992 ft 157 kts
2026-05-04 14:29 41.02936 28.73230 4868 ft 155 kts 358°
2026-05-04 14:30 41.04009 28.73206 4677 ft 149 kts 358°
2026-05-04 14:30 41.04979 28.73188 4503 ft 133 kts 358°
2026-05-04 14:30 41.06750 28.73156 4190 ft 123 kts 358°
2026-05-04 14:31 41.07605 28.73140 4034 ft 121 kts 358°
2026-05-04 14:31 41.09302 28.73108 3721 ft 121 kts 358°
2026-05-04 14:32 41.11002 28.73075 3402 ft 122 kts 358°
2026-05-04 14:32 41.11855 28.73058 3236 ft 122 kts 358°
2026-05-04 14:32 41.12698 28.73042 3074 ft 122 kts 358°
2026-05-04 14:32 41.13555 28.73024 2901 ft 122 kts 358°
2026-05-04 14:33 41.14401 28.73007 2730 ft 121 kts 359°
2026-05-04 14:33 41.15253 28.72991 2569 ft 121 kts 359°
2026-05-04 14:33 41.16085 28.72975 2415 ft 121 kts 359°
2026-05-04 14:33 41.16930 28.72959 2233 ft 121 kts 359°
2026-05-04 14:34 41.17780 28.72942 2069 ft 121 kts 359°
2026-05-04 14:34 41.18617 28.72925 1917 ft 120 kts 359°
2026-05-04 14:34 41.19455 28.72909 1723 ft 120 kts 359°
2026-05-04 14:34 41.20293 28.72893 1553 ft 119 kts 359°
2026-05-04 14:35 41.21133 28.72876 1406 ft 123 kts 359°
2026-05-04 14:35 41.21993 28.72859 1228 ft 123 kts 359°
2026-05-04 14:35 41.22842 28.72843 1058 ft 123 kts 359°
2026-05-04 14:35 41.23707 28.72822 866 ft 124 kts 358°
2026-05-04 14:36 41.24570 28.72802 648 ft 122 kts 358°
2026-05-04 14:36 41.25443 28.72777 549 ft 125 kts 358°
2026-05-04 14:36 41.26311 28.72767 372 ft 125 kts 359°
2026-05-04 14:36 41.27134 28.72754 340 ft 101 kts
2026-05-04 14:37 41.27684 28.72744 340 ft 57 kts 359°
2026-05-04 14:37 41.27955 28.72736 340 ft 29 kts 359°
2026-05-04 14:37 41.28155 28.72731 340 ft 27 kts
2026-05-04 14:37 41.28334 28.72786 340 ft 25 kts 28°
2026-05-04 14:38 41.28456 28.72905 340 ft 17 kts 71°
2026-05-04 14:38 41.28400 28.72971 340 ft 13 kts 178°
2026-05-04 14:38 41.28307 28.72973 340 ft 13 kts 180°
2026-05-04 14:38 41.28211 28.72974 340 ft 13 kts 180°
2026-05-04 14:39 41.28114 28.72976 340 ft 14 kts 179°
2026-05-04 14:39 41.28014 28.72978 340 ft 14 kts 179°
2026-05-04 14:39 41.27913 28.72982 340 ft 14 kts 179°
2026-05-04 14:40 41.27707 28.72986 340 ft 14 kts 180°
2026-05-04 14:40 41.27605 28.72987 340 ft 14 kts 180°
2026-05-04 14:40 41.27502 28.72988 340 ft 14 kts 180°
2026-05-04 14:40 41.27399 28.72989 340 ft 14 kts 180°
2026-05-04 14:41 41.27295 28.72990 340 ft 14 kts 180°
2026-05-04 14:41 41.27192 28.72991 340 ft 14 kts 180°
2026-05-04 14:41 41.26984 28.72993 340 ft 14 kts 180°
2026-05-04 14:42 41.26865 28.73127 340 ft 13 kts 90°
2026-05-04 14:42 41.26866 28.73246 340 ft 12 kts 89°
2026-05-04 14:42 41.26864 28.73353 340 ft 10 kts 88°
2026-05-04 14:43 41.26864 28.73408 340 ft 4 kts 102°
2026-05-04 14:43 41.26841 28.73437 340 ft 4 kts 166°
2026-05-04 14:43 41.26807 28.73441 340 ft 4 kts 178°
2026-05-04 14:43 41.26780 28.73442 340 ft 0 kts 179°